sat.trackr.live / text

‹ back to catalog

STARLINK-35916

NORAD 66504 · 2025-263V

PAYLOAD ACTIVE UNKNOWN

§ Identity

Operator
Country
US
Launch date
2025-11-15
Launch site
AFETR
Launch vehicle
Mass (kg)
RCS (m²)

Purposes: comms

External: N2YO · Heavens-Above · Gunter

§ Orbital elements

Epoch: 2026-09-20T21:54:59.581440Z

Period
94.27 min
Inclination
43.0031°
Eccentricity
0.0001403
Mean motion
15.27582673 rev/d
Perigee alt
482.1 km
Apogee alt
484.0 km
Semi-major
6,861.2 km
B*
4.5898e-4
RAAN
331.8545°
Arg perigee
269.2122°
Mean anomaly
90.8569°
Rev number
4,871

§ Raw data

STARLINK-359161 66504U 25263V   26263.91318960  .00012390  00000+0  45898-3 0  99962 66504  43.0031 331.8545 0001403 269.2122  90.8569 15.27582673 48718

JSON: /api/v1/satellites/66504 · /tle

For live sub-satellite position, see the globe view (requires WebGL).

§ Visibility from observer

Set your observer location to see the next 7 days of passes ≥ 10°. The values pass through the URL so the page stays shareable.

No JS? Fill the form by hand. The geolocation button needs JavaScript.